Weather History for KPRB - October, 2014

Change the Weather History Date:

Sunday, October 12, 2014

  Actual Average Record
Temperature  
Mean Temperature 70 °F 63 °F  
Max Temperature 91 °F 81 °F 100 °F (1950)
Min Temperature 48 °F 45 °F 27 °F (2008)
Degree Days  
Heating Degree Days 0 3  
Month to date heating degree days 0 32  
Since 1 July heating degree days 1 64  
Cooling Degree Days 5 1  
Month to date cooling degree days 93 26  
Year to date cooling degree days 1345 917  
Growing Degree Days 20 (Base 50)    
Moisture  
Dew Point 37 °F    
Average Humidity 40    
Maximum Humidity 71    
Minimum Humidity 9    
Precipitation  
Precipitation 0.00 in 0.02 in 0.25 in (1972)
Month to date precipitation 0.00 0.16  
Year to date precipitation 4.46 9.28  
Since 1 July precipitation T 0.49  
Sea Level Pressure  
Sea Level Pressure 29.92 in    
Wind  
Wind Speed 4 mph (ESE)    
Max Wind Speed 15 mph    
Max Gust Speed 19 mph    
Visibility 10 miles    
Events      
T = Trace of Precipitation, MM = Missing Value Source: NWS Daily Summary

Daily Weather History Graph

Daily Weather History Graph

Search for Another Location

Airport or City:

Trip Planner

Search our weather history database for the weather conditions in past years. The results will help you decide how hot, cold, wet, or windy it might be!

Date:

Astronomy

Oct. 12, 2014 Rise Set
Actual Time 7:06 AM PDT 6:30 PM PDT
Civil Twilight 6:40 AM PDT 6:56 PM PDT
Nautical Twilight 6:11 AM PDT 7:25 PM PDT
Astronomical Twilight 5:41 AM PDT 7:55 PM PDT
Moon 9:59 PM PDT (10/12) 11:26 AM PDT (10/12)
Length of Visible Light 12h 15m
Length of Day
11h 24m
Waning Gibbous, 78% of the Moon is Illuminated
Oct 12
Waning Gibbous
Oct 15
Last Quarter
Oct 23
New
Oct 30
First Quarter
Nov 6
Full

Hourly Weather History & Observations

Time (PDT) Temp. Dew Point Humidity Pressure Visibility Wind Dir Wind Speed Gust Speed Precip Events Conditions
12:53 AM 62.1 °F 46.9 °F 58% 29.96 in 10.0 mi NNW 3.5 mph - N/A   Clear
1:53 AM 57.9 °F 45.0 °F 62% 29.96 in 10.0 mi Calm Calm - N/A   Clear
2:53 AM 55.0 °F 43.0 °F 64% 29.94 in 10.0 mi ESE 3.5 mph - N/A   Clear
3:53 AM 53.1 °F 42.1 °F 66% 29.94 in 10.0 mi Calm Calm - N/A   Clear
4:53 AM 53.1 °F 43.0 °F 69% 29.94 in 10.0 mi ENE 3.5 mph - N/A   Clear
5:53 AM 50.0 °F 41.0 °F 71% 29.94 in 10.0 mi East 3.5 mph - N/A   Clear
6:53 AM 50.0 °F 39.9 °F 68% 29.95 in 10.0 mi Calm Calm - N/A   Clear
7:53 AM 52.0 °F 41.0 °F 66% 29.96 in 10.0 mi Calm Calm - N/A   Clear
8:53 AM 59.0 °F 42.1 °F 53% 29.97 in 10.0 mi Calm Calm - N/A   Clear
9:53 AM 66.0 °F 45.0 °F 47% 29.96 in 10.0 mi NW 3.5 mph - N/A   Clear
10:53 AM 78.1 °F 45.0 °F 31% 29.94 in 10.0 mi NE 3.5 mph - N/A   Clear
11:53 AM 84.9 °F 44.1 °F 24% 29.92 in 10.0 mi SE 4.6 mph - N/A   Clear
12:53 PM 87.1 °F 39.9 °F 19% 29.90 in 10.0 mi Variable 6.9 mph - N/A   Clear
1:53 PM 88.0 °F 37.0 °F 16% 29.87 in 10.0 mi SE 8.1 mph - N/A   Clear
2:53 PM 90.0 °F 30.0 °F 12% 29.87 in 10.0 mi ESE 8.1 mph - N/A   Clear
3:53 PM 90.0 °F 28.0 °F 11% 29.86 in 10.0 mi Variable 3.5 mph - N/A   Clear
4:53 PM 90.0 °F 25.0 °F 10% 29.86 in 10.0 mi East 3.5 mph - N/A   Clear
5:53 PM 88.0 °F 26.1 °F 11% 29.86 in 10.0 mi East 9.2 mph - N/A   Clear
6:53 PM 80.1 °F 27.0 °F 14% 29.88 in 10.0 mi East 8.1 mph - N/A   Clear
7:53 PM 75.9 °F 28.0 °F 17% 29.90 in 10.0 mi South 4.6 mph - N/A   Clear
8:53 PM 73.0 °F 27.0 °F 18% 29.91 in 10.0 mi SSW 3.5 mph - N/A   Clear
9:53 PM 66.9 °F 28.0 °F 23% 29.93 in 10.0 mi SE 6.9 mph - N/A   Clear
10:53 PM 66.0 °F 32.0 °F 28% 29.93 in 10.0 mi East 6.9 mph - N/A   Clear
11:53 PM 63.0 °F 34.0 °F 34% 29.94 in 10.0 mi Calm Calm - N/A   Clear